Terug naar catalogus

STARLINK-1227

ActiefCommunicatieVLEO
NORAD 45230·PAYLOAD·🇺🇸 United States

Gelanceerd Feb 17, 2020 vanaf Cape Canaveral Space Force Station

Loading…

Volgende Passages (komende 24 uur)

TLE

VersSource: CelesTrak SupGP

Epoch: Sep 14, 2026, 14:29 UTC

1 45230C 20012BE  26257.60395833  .00091780  00000+0  13345-2 0  2577
2 45230  53.1467 182.1573 0003654 121.8065 209.8850 15.55100441    19

Volg STARLINK-1227 in realtime met AllMySat

Download on the App Store